This demonstration page uses our WeatherBlox Daily Observations layout. Learn more.

Left ArrowRight Arrow

38.89511, -77.03637

Hourly Observations for July 20, 2018

Temp ( °F °C ) Dew Point ( °F °C ) Humidity (%) Winds ( mph kmh ) Pressure ( in mb ) Visibility ( mi km ) Precip ( " mm )
12:52 am 00:52 Mostly Cloudy 75 23.9 60 15.6 60 60 SSW 6 9 30.10 1019 10 16 0.00 0.00
1:52 am 01:52 Mostly Cloudy 74 23.3 62 16.7 67 67 SSE 6 9 30.10 1019 10 16 0.00 0.00
2:52 am 02:52 Mostly Cloudy 73 22.8 63 17.2 71 71 S 6 9 30.10 1019 10 16 0.00 0.00
3:52 am 03:52 Partly Cloudy 72 22.2 64 17.8 76 76 Calm 30.10 1019 10 16 0.00 0.00
4:52 am 04:52 Partly Cloudy 72 22.2 63 17.2 73 73 SE 3 6 30.10 1019 10 16 0.00 0.00
5:52 am 05:52 Mostly Cloudy 72 22.2 64 17.8 76 76 Calm 30.11 1020 10 16 0.00 0.00
6:52 am 06:52 Mostly Cloudy 72 22.2 64 17.8 76 76 Calm 30.12 1020 10 16 0.00 0.00
7:52 am 07:52 Mostly Cloudy 75 23.9 66 18.9 74 74 Calm 30.13 1020 10 16 0.00 0.00
8:52 am 08:52 Mostly Cloudy 77 25 66 18.9 69 69 VRB 3 6 30.13 1020 10 16 0.00 0.00
9:52 am 09:52 Mostly Cloudy 79 26.1 65 18.3 62 62 S 6 9 30.13 1020 10 16 0.00 0.00
10:52 am 10:52 Mostly Cloudy 82 27.8 61 16.1 49 49 S 7 11 30.13 1020 10 16 0.00 0.00
11:52 am 11:52 Cloudy 83 28.3 60 15.6 46 46 S 9 15 30.12 1020 10 16 0.00 0.00
12:52 pm 12:52 Mostly Cloudy 85 29.4 60 15.6 43 43 S 10 17 30.11 1020 10 16 0.00 0.00
1:52 pm 13:52 Cloudy 83 28.3 61 16.1 48 48 SSE 8 13 30.10 1019 10 16 0.00 0.00
2:52 pm 14:52 Cloudy 84 28.9 61 16.1 46 46 SE 10 17 30.09 1019 10 16 0.00 0.00
3:52 pm 15:52 Mostly Cloudy 84 28.9 60 15.6 44 44 SE 10 17 30.07 1018 10 16 0.00 0.00
4:52 pm 16:52 Mostly Cloudy 83 28.3 58 14.4 43 43 SE 10 17 30.05 1018 10 16 0.00 0.00
5:52 pm 17:52 Mostly Cloudy 82 27.8 57 13.9 42 42 SE 12 19 30.04 1017 10 16 0.00 0.00
6:52 pm 18:52 Mostly Cloudy 83 28.3 57 13.9 41 41 SE 13 20 30.03 1017 10 16 0.00 0.00
7:52 pm 19:52 Mostly Cloudy 81 27.2 58 14.4 45 45 SE 8 13 30.04 1017 10 16 0.00 0.00
8:52 pm 20:52 Mostly Cloudy 79 26.1 62 16.7 56 56 SSE 9 15 30.04 1017 10 16 0.00 0.00
9:52 pm 21:52 Clear 78 25.6 63 17.2 60 60 SE 9 15 30.04 1017 10 16 0.00 0.00
9:57 pm 21:57 Mostly Cloudy 78 25.6 63 17.2 60 60 SE 12 19 30.06 1018 10 16 0.00 0.00
10:52 pm 22:52 Cloudy 77 25 64 17.8 64 64 SE 12 19 30.03 1017 10 16 0.00 0.00
11:52 pm 23:52 Mostly Cloudy 76 24.4 64 17.8 67 67 SE 7 11 30.04 1017 10 16 0.00 0.00

Powered by AerisWeather